THAICOM 8

Last updated on Sun Apr 12 2026 00:02:54 GMT+0000 (Coordinated Universal Time)

1 41552U 16031A 26101.47406078 -.00000120 00000+0 00000+0 0 9996 2 41552 0.0591 34.9565 0004250 346.8029 67.1302 1.00272582 36059
UTC large
Height (km)
Speed (km/s)
/
Latitude / Longitude
Inclination (degrees)
Orbital Period (minutes)
Azimuth
Elevation
Range (km)
Doppler Factor

Next 0 passes for location: London (51.5072 / 0.1276)

Sorry there are no passes over London.
THAICOM 8